TimeEST,TemperatureF,Dew PointF,Humidity,Sea Level PressureIn,VisibilityMPH,Wind Direction,Wind SpeedMPH,Gust SpeedMPH,PrecipitationIn,Events,Conditions,WindDirDegrees,DateUTC
12:57 AM,42.1,37.0,82,30.11,10.0,North,4.6,-,N/A,,Clear,360,2012-11-06 05:57:00
1:57 AM,42.1,36.0,79,30.09,10.0,North,5.8,-,N/A,,Clear,360,2012-11-06 06:57:00
2:57 AM,41.0,36.0,82,30.09,10.0,North,5.8,-,N/A,,Clear,360,2012-11-06 07:57:00
4:57 AM,39.9,35.1,83,30.07,10.0,North,9.2,-,N/A,,Clear,360,2012-11-06 09:57:00
5:57 AM,41.0,36.0,82,30.06,10.0,North,8.1,-,N/A,,Clear,10,2012-11-06 10:57:00
6:57 AM,41.0,36.0,82,30.06,10.0,North,9.2,-,N/A,,Clear,10,2012-11-06 11:57:00
7:57 AM,43.0,37.9,82,30.07,10.0,North,8.1,-,N/A,,Overcast,360,2012-11-06 12:57:00
8:57 AM,45.0,37.9,76,30.06,10.0,NNE,10.4,-,N/A,,Overcast,20,2012-11-06 13:57:00
9:57 AM,46.0,39.0,76,30.04,10.0,North,11.5,-,N/A,,Overcast,10,2012-11-06 14:57:00
10:57 AM,46.9,39.0,74,30.03,10.0,North,11.5,19.6,N/A,,Overcast,10,2012-11-06 15:57:00
11:57 AM,46.9,41.0,80,30.00,10.0,North,9.2,-,0.00,Rain,Light Rain,10,2012-11-06 16:57:00
12:57 PM,45.0,42.1,90,30.01,7.0,NW,6.9,-,0.02,Rain,Light Rain,320,2012-11-06 17:57:00
3:57 PM,46.0,44.1,93,29.96,5.0,NW,5.8,-,0.05,Rain,Light Rain,320,2012-11-06 20:57:00
4:57 PM,46.0,44.1,93,29.91,8.0,NNE,8.1,-,0.02,Rain,Light Rain,20,2012-11-06 21:57:00
5:15 PM,46.4,44.6,93,29.90,9.0,NNE,5.8,-,0.00,Rain,Light Rain,20,2012-11-06 22:15:00
5:57 PM,46.9,45.0,93,29.91,7.0,NNE,8.1,-,0.02,Rain,Light Rain,20,2012-11-06 22:57:00
6:23 PM,46.4,44.6,93,29.91,6.0,North,5.8,-,0.04,Rain,Rain,360,2012-11-06 23:23:00
6:57 PM,46.0,45.0,96,29.91,5.0,North,9.2,-,0.08,Rain,Rain,360,2012-11-06 23:57:00
7:19 PM,46.4,44.6,93,29.88,8.0,North,10.4,-,0.02,Rain,Light Rain,360,2012-11-07 00:19:00
7:29 PM,46.4,44.6,93,29.86,10.0,North,11.5,20.7,0.02,Rain,Light Rain,360,2012-11-07 00:29:00
7:57 PM,46.0,44.1,93,29.89,10.0,NNW,11.5,-,0.02,,Overcast,340,2012-11-07 00:57:00
8:57 PM,44.1,42.1,93,29.90,10.0,North,9.2,18.4,N/A,,Mostly Cloudy,350,2012-11-07 01:57:00
9:57 PM,44.1,42.1,93,29.89,10.0,NNW,9.2,17.3,N/A,,Overcast,340,2012-11-07 02:57:00
10:29 PM,42.8,41.0,93,29.88,10.0,NNW,5.8,-,N/A,,Overcast,330,2012-11-07 03:29:00
10:46 PM,42.8,41.0,93,29.87,10.0,NNW,11.5,18.4,N/A,,Overcast,340,2012-11-07 03:46:00
10:57 PM,43.0,41.0,93,29.87,10.0,NNW,10.4,-,N/A,,Overcast,340,2012-11-07 03:57:00
11:05 PM,42.8,41.0,93,29.86,10.0,North,10.4,17.3,N/A,,Overcast,350,2012-11-07 04:05:00
11:57 PM,42.1,39.9,92,29.85,10.0,NNW,10.4,16.1,N/A,,Overcast,340,2012-11-07 04:57:00